RH
17 15 14 38 87 96 82 23 13 12 12 14 18 23 30 48 43 38 43 56 66 50 56 54 64 62 67 67 76 77 79 80 80 76 70 77 80 82 67 70 62 59 23 16 16 17 22 18 15
10 11 12 32 75 87 78 12 29 12 10 12 17 21 27 42 45 38 38 59 62 56 59 55 59 64 63 67 69 73 78 78 77 74 78 78 81 81 86 87 85 84 86 65 58 63 65 60 51
7 8 12 72 71 58 74 10 11 14 13 12 14 20 25 33 45 39 38 53 60 53 56 54 51 52 50 49 65 72 78 74 75 80 79 80 84 85 81 80 89 94 87 85 82 81 74 69 66
6 8 14 63 66 7 8 7 9 11 14 15 12 17 22 28 43 42 35 49 58 48 46 42 47 42 31 34 51 60 69 69 66 76 75 80 88 88 92 85 77 83 68 60 62 57 43 30 32
6 6 64 74 59 5 5 5 5 8 10 15 13 14 20 26 35 45 36 41 57 37 46 40 45 40 36 29 46 64 56 64 68 76 76 71 69 72 70 71 62 57 58 53 50 49 55 59 50
5 6 74 72 67 6 5 5 5 6 9 12 15 13 16 22 30 42 39 35 43 36 33 35 48 49 37 23 37 48 52 58 68 72 75 69 60 56 52 53 52 48 51 52 33 25 23 21 17
5 52 74 61 52 8 6 6 5 5 6 9 16 14 13 20 28 36 41 37 41 36 34 35 48 41 29 19 29 29 32 46 54 62 70 71 66 62 57 52 51 38 30 21 10 9 10 11 12
5 6 21 68 82 79 6 6 6 6 5 7 12 14 13 17 25 33 40 39 38 38 35 32 29 25 15 15 22 22 21 31 47 53 55 64 77 78 59 54 25 13 8 10 13 14 16 17 17
6 8 49 61 9 25 5 5 6 6 6 6 10 14 14 14 19 29 37 43 38 37 37 34 24 14 13 12 14 12 14 28 36 51 59 68 73 86 65 29 12 9 12 16 18 18 19 19 17
8 11 39 6 5 6 5 5 5 6 7 6 7 13 15 13 14 22 29 44 43 39 38 38 26 12 10 10 12 12 13 17 26 42 61 78 64 66 59 18 10 12 17 19 17 18 20 20 11
12 10 8 6 5 6 6 5 5 6 6 7 7 13 14 15 14 16 24 31 45 45 35 41 27 13 11 10 11 11 18 27 36 50 58 76 70 65 32 10 12 17 19 17 16 18 18 12 6
13 10 8 7 6 6 6 6 6 7 7 8 8 12 12 15 16 14 17 26 41 48 38 40 32 16 12 11 11 12 13 26 34 43 50 60 58 62 17 14 17 19 17 14 16 17 13 7 4
13 8 7 6 6 6 6 6 7 7 7 9 9 9 11 14 17 16 15 20 33 47 48 43 36 19 14 12 13 13 12 14 24 31 32 34 35 42 33 26 21 17 15 17 21 20 14 7 4
9 8 7 7 6 6 6 7 8 8 10 10 9 9 10 13 17 18 16 17 26 41 56 48 41 25 17 14 15 14 14 13 14 18 17 14 13 27 39 20 16 15 20 20 21 19 10 5 5
9 7 7 7 6 6 6 7 8 8 8 8 8 9 10 13 18 20 19 16 23 36 61 51 44 31 25 17 18 16 15 16 16 13 12 12 10 11 13 15 15 25 21 18 17 13 7 4 5
7 7 7 9 6 8 9 13 14 10 15 17 17 16 16 16 18 22 22 20 19 28 58 52 45 41 31 21 20 22 18 16 16 18 15 12 10 10 12 13 20 24 22 20 13 7 4 4 4
8 10 29 19 12 21 12 20 20 20 29 38 36 30 20 19 20 23 23 27 22 25 46 73 51 46 37 26 22 20 20 22 22 19 18 17 14 11 12 16 20 22 21 22 14 5 3 4 4
38 44 24 27 33 22 34 34 45 41 49 57 62 59 39 22 21 22 23 23 30 27 38 58 91 71 45 30 27 21 19 20 20 21 21 18 18 17 16 17 19 20 20 24 14 5 4 4 4
39 30 21 27 38 32 38 39 42 50 37 44 46 54 65 36 24 23 24 25 32 34 37 42 86 96 61 39 30 28 22 21 18 14 16 22 18 18 19 20 20 20 20 24 10 4 4 4 4
29 14 30 33 32 34 33 30 28 27 22 19 22 34 45 59 55 30 29 29 34 38 31 35 55 86 93 47 34 32 24 21 21 16 13 15 22 21 21 21 21 20 20 20 11 6 4 4 4
12 21 32 30 21 17 12 13 14 13 13 14 16 20 24 44 52 48 31 28 30 31 41 50 52 60 91 76 40 31 26 22 22 21 14 14 16 22 25 23 20 20 19 16 11 7 4 5 5
6 6 7 6 5 4 4 5 6 8 6 7 10 11 14 21 40 48 46 40 29 35 42 36 41 93 96 96 64 62 28 25 24 23 18 16 15 17 20 20 20 18 15 15 16 10 7 7 7
4 3 3 2 2 2 2 2 32 31 8 8 6 7 15 22 28 40 48 45 38 58 74 76 91 97 95 92 94 60 36 29 28 26 22 20 18 17 18 21 20 18 17 17 16 13 12 11 8
3 2 2 2 1 2 13 7 26 28 4 6 6 6 12 13 28 34 36 43 46 43 43 47 47 91 96 88 80 92 56 35 33 30 25 21 21 21 21 24 22 21 18 19 16 14 14 11 10
2 2 3 34 48 46 38 7 6 3 3 4 4 4 9 16 24 30 36 39 41 38 36 62 79 82 82 83 96 95 64 45 40 35 31 24 22 21 22 25 24 21 21 20 18 18 14 12 11
3 3 4 4 27 42 11 6 29 3 7 8 5 6 5 3 4 21 30 36 41 51 48 46 70 80 96 97 97 95 94 76 51 44 38 28 24 25 24 25 28 26 25 22 18 14 12 12 12
5 3 4 3 3 3 14 42 5 8 7 5 9 11 6 3 3 5 7 16 40 49 63 66 66 71 83 81 98 96 94 72 53 48 41 32 26 27 27 26 30 30 28 24 18 14 14 17 14
5 5 4 3 3 3 26 46 38 33 4 6 10 12 9 7 5 4 3 5 4 47 56 66 72 73 78 83 97 97 98 72 49 45 42 35 29 29 28 25 26 27 27 23 19 18 25 26 17
8 5 5 4 4 4 3 3 4 4 6 6 9 9 10 10 8 5 3 6 7 9 54 67 70 69 77 96 97 97 98 88 47 49 45 39 29 29 25 26 26 31 24 22 44 82 58 84 34
9 10 11 6 3 3 3 2 4 6 7 7 8 9 12 10 9 7 4 4 6 6 27 58 65 70 80 90 97 96 96 80 62 52 49 39 30 27 25 29 34 31 27 32 69 75 93 82 24
Wind_Speed
14 13 16 22 16 8 10 18 19 25 28 28 29 30 24 15 15 15 15 15 13 14 13 15 14 13 13 12 9 13 10 10 6 5 4 6 5 3 4 6 6 4 4 6 6 7 8 9 9
11 11 13 15 21 7 18 20 19 25 24 26 30 31 28 22 17 17 17 14 13 13 12 12 14 13 13 12 12 12 11 10 8 5 5 5 6 4 3 4 4 4 5 8 9 10 12 12 12
8 10 11 10 7 3 9 16 19 22 24 26 27 30 30 27 20 18 17 14 13 12 11 11 12 11 13 16 14 11 10 11 6 5 8 6 4 4 3 3 5 5 6 7 6 5 4 5 7
7 8 7 14 7 8 12 16 19 21 23 26 26 28 29 29 21 18 17 14 12 12 10 11 11 11 14 13 13 11 9 9 7 8 9 9 6 4 2 4 4 4 4 5 5 5 5 5 6
7 8 8 10 12 13 13 18 20 22 23 23 25 26 28 28 23 18 18 16 12 13 10 11 10 12 15 14 11 8 9 6 7 9 8 6 6 5 4 3 4 5 4 6 7 7 8 7 6
4 8 5 7 22 15 16 18 20 21 21 22 21 23 26 29 25 19 16 16 14 12 11 10 10 12 14 13 11 9 8 7 8 7 4 5 7 6 5 4 4 4 3 3 5 6 6 6 6
5 4 7 9 17 19 18 20 20 20 21 22 22 21 23 26 25 21 16 16 13 12 10 10 11 11 12 11 10 9 9 8 6 6 4 2 4 6 7 3 2 2 3 4 5 8 8 8 9
7 7 9 10 11 19 20 21 22 22 21 22 21 20 21 22 25 23 18 16 15 12 11 11 11 11 9 8 9 8 9 7 6 7 6 6 6 7 5 3 2 3 5 6 8 9 10 10 11
10 8 8 12 13 22 19 23 23 25 22 22 21 21 18 19 22 22 21 16 16 14 12 11 12 11 9 8 7 7 7 5 4 5 5 4 2 5 3 2 1 2 5 7 7 9 9 9 10
13 9 18 16 18 22 24 23 25 28 25 24 24 21 19 18 19 21 23 17 15 15 14 11 11 12 9 6 6 5 5 6 5 5 3 2 2 2 4 1 2 3 4 5 6 8 8 10 10
19 18 19 21 21 23 24 26 29 29 32 27 26 21 21 19 18 19 21 22 17 16 15 13 11 11 10 5 4 4 4 3 3 2 1 3 2 3 3 2 1 1 3 6 9 10 9 9 11
23 22 23 26 25 26 25 27 30 30 31 30 28 23 22 22 20 19 21 22 18 15 14 14 12 11 10 6 3 3 3 2 1 1 1 2 3 4 4 2 1 2 6 9 11 9 7 9 9
25 27 26 27 28 28 28 29 29 32 32 30 28 26 24 24 23 20 20 23 20 16 15 14 13 12 11 9 6 4 4 3 1 1 2 3 3 3 4 2 4 6 9 12 11 9 8 9 9
28 29 30 30 31 31 30 31 29 32 32 31 31 29 28 25 25 23 20 23 22 19 17 15 14 13 13 12 9 6 5 4 3 2 3 5 5 6 6 5 5 8 11 13 11 9 9 11 11
32 32 33 33 34 34 32 32 34 34 34 33 32 32 31 28 25 25 22 22 24 21 17 15 14 13 16 14 11 10 8 6 5 4 4 6 6 7 8 7 7 8 12 13 11 9 10 12 12
34 35 33 40 37 38 35 34 44 37 36 35 33 33 33 30 27 26 25 22 25 23 19 16 14 15 17 17 15 13 11 10 9 7 5 7 9 9 10 9 9 10 12 13 12 13 13 13 12
37 36 27 39 46 39 43 37 45 43 38 35 32 31 30 30 31 29 27 24 26 25 21 19 16 17 18 18 17 15 14 13 13 12 11 9 10 11 12 13 13 12 13 14 14 14 14 13 13
30 32 37 37 39 45 35 40 34 42 29 29 29 29 28 31 32 34 28 24 27 28 24 21 21 19 19 18 18 16 14 14 14 14 15 15 15 15 15 16 17 17 15 15 15 15 15 15 15
31 31 31 29 32 35 29 27 28 21 21 20 25 25 26 28 32 35 29 26 27 30 27 26 23 24 22 20 19 17 16 16 15 15 17 18 18 19 19 19 20 20 19 17 16 16 17 18 18
28 27 26 27 28 27 27 25 25 19 19 22 25 25 22 29 29 30 29 29 29 30 31 29 27 25 27 24 21 19 17 16 16 16 17 20 20 21 22 22 22 22 21 20 18 18 19 20 21
23 26 27 27 28 29 30 27 27 22 19 22 25 25 26 24 29 31 31 30 31 31 33 33 30 31 28 25 23 19 18 16 17 18 17 19 20 22 23 23 22 22 21 20 20 20 21 23 24
27 29 28 28 29 30 28 31 30 18 23 24 24 27 28 27 27 30 31 32 32 33 36 39 35 37 27 31 25 19 19 17 18 19 19 19 21 22 23 22 21 21 22 22 22 23 23 24 25
29 28 29 29 30 32 29 31 22 19 18 17 22 25 26 28 28 27 30 33 34 36 36 41 40 34 28 22 25 21 21 19 18 18 21 21 22 23 23 22 22 22 23 24 24 25 24 25 26
30 28 26 27 29 29 30 28 15 20 26 20 22 23 26 27 26 27 30 32 33 36 36 39 39 33 33 28 25 26 22 21 20 19 20 22 23 24 24 23 22 22 23 25 25 24 25 26 26
29 27 27 21 20 16 28 30 28 26 23 23 22 25 25 26 28 27 28 32 35 37 35 37 39 37 37 37 37 32 21 22 22 22 21 23 23 24 24 24 24 23 24 25 27 26 25 26 27
31 29 28 31 22 22 29 34 25 32 33 27 28 26 26 29 30 29 29 29 33 35 37 38 39 41 44 40 42 38 28 25 24 24 24 22 23 24 25 25 26 26 25 27 27 26 26 28 29
36 32 35 34 34 36 31 27 38 40 42 36 33 33 32 33 33 31 35 32 32 33 35 41 42 43 43 44 49 46 29 26 26 26 25 23 24 24 24 25 26 27 27 26 26 26 26 30 34
40 40 39 39 40 40 29 23 30 35 44 43 39 36 39 37 34 37 37 36 32 34 35 38 40 41 43 41 47 41 31 26 26 27 26 25 25 24 25 25 26 26 26 27 25 24 26 30 34
42 46 44 43 43 43 44 42 39 43 45 43 45 42 44 40 40 43 41 39 36 35 35 35 36 37 39 41 39 42 36 28 28 28 26 27 26 25 24 25 26 25 26 26 27 28 28 33 38
46 43 44 49 47 47 49 47 37 46 42 46 49 46 45 44 45 44 41 41 41 35 40 36 37 35 37 35 38 33 36 27 24 26 29 29 27 25 24 23 24 24 25 27 30 31 39 40 40
Wind_Direction
73 60 46 50 49 52 9 342 356 8 13 14 17 17 18 22 22 17 10 13 4 0 5 23 21 16 356 344 339 3 4 7 348 335 341 351 341 346 310 309 301 304 285 275 275 280 279 279 275
75 57 49 59 44 354 305 335 357 4 12 12 16 13 14 16 14 11 11 11 10 359 1 14 10 13 0 350 328 333 346 0 17 24 3 349 331 335 11 13 0 346 276 274 271 275 277 273 272
65 49 26 34 2 262 314 342 351 2 9 15 15 11 10 12 11 5 5 10 10 6 5 7 0 2 4 4 358 338 335 347 8 3 356 352 329 310 295 328 342 340 304 290 293 305 309 295 282
58 45 53 50 267 327 324 337 347 0 6 12 7 8 9 10 6 358 356 8 10 6 9 8 3 3 356 353 0 1 356 0 11 3 0 356 346 320 313 324 332 343 352 39 44 41 17 358 340
37 25 38 311 298 320 325 335 342 351 360 6 3 3 5 7 2 353 353 359 5 1 7 356 345 346 348 341 345 3 1 7 0 7 20 28 23 23 29 44 61 53 70 74 57 62 57 54 33
6 22 31 296 280 314 326 333 337 341 350 354 360 359 2 2 0 354 349 352 354 356 355 343 333 327 334 342 340 334 332 331 331 355 25 51 39 35 41 65 73 60 75 64 36 55 45 30 16
330 296 266 264 291 314 327 328 328 333 337 344 351 356 356 358 357 357 345 345 347 344 340 340 324 328 325 321 329 331 332 310 312 330 324 330 335 4 359 18 26 47 54 55 67 65 54 40 27
300 300 295 285 292 281 319 319 320 325 330 333 340 350 349 354 354 0 349 340 340 335 330 335 330 320 321 309 306 306 310 322 309 311 332 312 303 300 345 340 31 53 81 86 62 48 35 21 12
290 298 279 269 294 289 308 309 315 318 323 326 331 338 344 348 351 356 353 338 333 330 324 327 331 323 319 303 312 311 297 296 328 310 334 333 12 296 326 8 59 97 93 74 50 29 19 11 10
288 278 249 281 287 292 300 306 310 313 318 321 325 328 337 339 345 352 351 343 327 328 321 318 326 324 310 300 323 330 305 279 290 300 314 174 67 288 308 276 151 120 92 51 24 17 8 4 1
289 282 294 288 290 293 299 306 307 310 311 317 319 319 328 333 335 344 346 346 334 325 321 314 320 324 304 289 326 349 352 338 307 287 253 184 142 272 265 227 145 106 31 2 359 354 351 347 354
288 286 291 292 294 295 298 301 302 304 306 314 315 316 324 326 328 336 340 341 337 321 317 310 311 316 298 271 292 331 335 1 3 311 217 233 239 198 205 211 212 346 337 333 331 320 319 345 345
282 287 288 289 290 291 294 295 297 298 303 309 312 313 317 320 323 329 330 333 336 323 315 307 305 308 293 275 267 298 319 317 258 250 227 234 226 207 212 234 298 311 312 311 305 301 316 329 319
285 283 285 285 285 286 289 289 292 291 299 305 309 311 312 314 314 319 322 324 330 327 311 307 298 298 294 285 271 269 285 296 285 240 248 226 210 202 219 235 252 289 303 300 290 295 314 310 314
281 281 284 282 281 286 284 289 289 294 299 304 308 309 308 309 307 309 315 315 318 323 309 303 294 286 290 287 277 267 264 276 274 260 254 259 258 235 218 232 273 297 305 301 290 292 296 297 315
278 280 282 280 286 284 286 294 292 297 297 299 303 306 306 301 300 299 307 307 308 315 312 302 295 285 282 286 280 270 263 259 263 261 241 255 266 260 247 257 258 275 295 306 294 290 292 301 308
282 276 273 283 285 284 291 288 288 293 295 302 300 297 294 292 293 293 297 303 301 307 307 294 291 284 277 276 278 277 268 260 258 259 253 248 254 251 253 260 264 273 284 298 291 281 283 287 299
256 265 281 283 285 290 291 295 289 293 302 297 293 292 291 287 286 285 293 301 296 298 298 295 283 279 273 272 272 277 272 268 263 260 256 250 249 251 251 259 268 272 274 287 279 273 278 287 296
268 269 277 278 280 289 292 297 294 308 317 298 294 288 286 282 279 285 291 291 290 291 292 291 288 283 272 263 264 271 270 272 272 264 255 251 249 253 255 257 263 270 274 277 274 275 278 282 294
265 270 272 277 280 287 293 301 304 312 306 302 299 301 286 278 276 276 277 281 284 284 288 292 289 291 278 264 262 265 270 274 279 267 257 254 253 254 258 262 264 267 272 277 271 272 276 283 290
271 272 272 275 284 293 294 300 306 316 312 307 307 305 304 283 277 274 271 274 277 280 284 280 280 283 291 258 256 262 270 270 278 278 262 259 257 257 259 260 265 268 272 270 265 270 274 285 294
268 269 274 279 283 287 296 295 299 301 310 311 308 306 303 300 290 283 279 276 275 272 274 278 282 279 284 264 252 256 266 270 273 279 272 264 264 260 259 263 267 271 271 265 269 273 278 286 292
268 271 276 280 283 286 291 291 307 316 319 308 303 306 304 302 300 293 285 281 277 275 274 276 283 281 285 299 262 255 260 269 273 277 278 271 268 266 263 265 270 271 271 270 274 277 284 292 299
268 271 277 281 284 291 290 291 308 304 317 321 320 317 311 308 300 296 288 280 273 272 275 277 279 281 285 289 273 253 253 264 270 275 277 276 273 271 268 268 269 270 270 272 274 278 287 292 300
265 271 275 279 282 303 280 299 306 308 312 322 324 322 319 317 313 305 295 290 283 277 274 274 276 276 272 272 269 267 253 259 266 275 278 278 277 275 274 272 270 269 274 277 280 287 291 296 299
269 267 269 271 268 256 277 296 295 305 303 319 328 331 325 326 324 323 316 309 293 285 281 279 273 272 273 274 270 267 243 256 262 269 274 279 277 275 275 274 273 273 275 279 287 291 297 298 298
268 269 268 271 275 280 290 295 298 305 306 318 323 324 320 321 325 327 329 325 317 299 287 281 281 279 275 273 267 268 238 250 256 265 272 276 275 273 272 271 271 273 278 284 292 299 300 302 304
264 268 270 272 272 275 277 270 293 287 300 310 313 318 319 315 317 319 324 328 318 313 298 287 281 276 273 273 270 261 236 245 256 264 271 276 275 273 272 273 274 277 284 289 292 293 304 307 306
269 263 265 266 268 275 277 278 284 289 291 302 306 311 311 312 313 315 319 328 320 309 309 296 288 277 271 276 281 271 235 241 253 264 272 276 274 273 271 271 274 281 287 290 291 292 303 313 311
268 266 270 270 268 269 272 272 281 281 292 296 300 304 306 308 308 311 316 318 323 307 307 301 292 278 271 274 280 246 249 243 257 268 271 275 273 272 267 272 277 280 287 292 308 291 294 301 306